TimeEST,TemperatureF,Dew PointF,Humidity,Sea Level PressureIn,VisibilityMPH,Wind Direction,Wind SpeedMPH,Gust SpeedMPH,PrecipitationIn,Events,Conditions,WindDirDegrees,DateUTC
12:53 AM,19.9,10.9,68,30.09,10.0,West,6.9,-,N/A,,Clear,260,2000-12-27 05:53:00
1:53 AM,19.0,10.9,71,30.09,10.0,Calm,Calm,-,N/A,,Clear,0,2000-12-27 06:53:00
2:53 AM,19.0,10.9,71,30.09,10.0,Variable,5.8,-,N/A,,Clear,0,2000-12-27 07:53:00
3:53 AM,19.9,12.0,71,30.06,10.0,Variable,4.6,-,N/A,,Clear,0,2000-12-27 08:53:00
4:53 AM,17.1,12.0,81,30.06,10.0,Calm,Calm,-,N/A,,Clear,0,2000-12-27 09:53:00
5:53 AM,19.9,12.0,71,30.05,10.0,West,4.6,-,N/A,,Clear,260,2000-12-27 10:53:00
6:53 AM,19.9,12.0,71,30.04,10.0,Variable,4.6,-,N/A,,Clear,0,2000-12-27 11:53:00
7:53 AM,21.9,12.9,68,30.04,10.0,WNW,5.8,-,N/A,,Overcast,290,2000-12-27 12:53:00
8:53 AM,23.0,14.0,68,30.03,10.0,West,6.9,-,N/A,,Mostly Cloudy,270,2000-12-27 13:53:00
9:53 AM,25.0,14.0,63,30.03,10.0,WNW,8.1,-,N/A,,Overcast,290,2000-12-27 14:53:00
10:53 AM,27.0,14.0,58,30.00,10.0,Variable,5.8,-,N/A,,Clear,0,2000-12-27 15:53:00
11:53 AM,28.0,14.0,56,29.97,10.0,West,12.7,17.3,N/A,,Clear,260,2000-12-27 16:53:00
12:53 PM,28.9,14.0,54,29.93,10.0,West,8.1,-,N/A,,Clear,270,2000-12-27 17:53:00
1:53 PM,30.0,12.9,49,29.92,10.0,WNW,11.5,19.6,N/A,,Mostly Cloudy,290,2000-12-27 18:53:00
2:53 PM,30.0,12.9,49,29.92,10.0,NW,8.1,16.1,N/A,,Mostly Cloudy,310,2000-12-27 19:53:00
3:53 PM,28.9,12.0,49,29.91,10.0,West,11.5,-,N/A,,Mostly Cloudy,280,2000-12-27 20:53:00
4:53 PM,28.0,12.0,51,29.92,10.0,West,5.8,-,N/A,,Partly Cloudy,280,2000-12-27 21:53:00
5:53 PM,27.0,10.9,51,29.92,10.0,West,10.4,16.1,N/A,,Clear,280,2000-12-27 22:53:00
6:53 PM,27.0,12.0,53,29.93,10.0,West,10.4,17.3,N/A,,Overcast,270,2000-12-27 23:53:00
7:53 PM,26.1,12.0,55,29.92,10.0,WNW,8.1,17.3,N/A,,Partly Cloudy,290,2000-12-28 00:53:00
8:53 PM,25.0,10.9,55,29.91,10.0,Variable,3.5,-,N/A,,Clear,0,2000-12-28 01:53:00
9:53 PM,25.0,10.9,55,29.89,10.0,West,8.1,-,N/A,,Overcast,280,2000-12-28 02:53:00
10:53 PM,24.1,10.9,57,29.87,10.0,West,5.8,-,N/A,,Clear,270,2000-12-28 03:53:00
11:53 PM,24.1,10.0,55,29.86,10.0,Variable,4.6,-,N/A,,Overcast,0,2000-12-28 04:53:00